Weather History for KDET - July, 2013

Change the Weather History Date:

Tuesday, July 9, 2013

  Actual Average Record
Temperature  
Mean Temperature 80 °F -  
Max Temperature 89 °F 84 °F 98 °F (1988)
Min Temperature 71 °F 67 °F 51 °F (1961)
Cooling Degree Days 15    
Growing Degree Days 30 (Base 50)    
Moisture  
Dew Point 70 °F    
Average Humidity 80    
Maximum Humidity 94    
Minimum Humidity 48    
Precipitation  
Precipitation 0.19 in - - ()
Sea Level Pressure  
Sea Level Pressure 29.96 in    
Wind  
Wind Speed 5 mph (SW)    
Max Wind Speed 20 mph    
Max Gust Speed 31 mph    
Visibility 8 miles    
Events Rain    
Averages and records for this station are not official NWS values.
T = Trace of Precipitation, MM = Missing Value Source: NWS Daily Summary

Daily Weather History Graph

Daily Weather History Graph

Search for Another Location

Airport or City:

Trip Planner

Search our weather history database for the weather conditions in past years. The results will help you decide how hot, cold, wet, or windy it might be!

Date:

Astronomy

Jul. 09, 2013 Rise Set
Actual Time 6:03 AM EDT 9:10 PM EDT
Civil Twilight 5:29 AM EDT 9:44 PM EDT
Nautical Twilight 4:46 AM EDT 10:27 PM EDT
Astronomical Twilight 3:53 AM EDT 11:19 PM EDT
Moon 7:30 AM EDT (7/9) 9:43 PM EDT (7/9)
Length of Visible Light 16h 14m
Length of Day
15h 06m
New Moon, 2% of the Moon is Illuminated
Jul 9
New Moon
Jul 15
First Quarter
Jul 22
Full
Jul 29
Last Quarter
Aug 6
New

Hourly Weather History & Observations

Time (EDT) Temp. Heat Index Dew Point Humidity Pressure Visibility Wind Dir Wind Speed Gust Speed Precip Events Conditions
12:53 AM 72.0 °F - 70.0 °F 93% 29.99 in 10.0 mi South 8.1 mph - N/A   Overcast
1:12 AM 71.6 °F - 69.8 °F 94% 30.00 in 9.0 mi SSW 3.5 mph - N/A   Overcast
1:34 AM 71.6 °F - 69.8 °F 94% 29.99 in 9.0 mi South 5.8 mph - N/A   Overcast
1:53 AM 72.0 °F - 70.0 °F 93% 29.98 in 9.0 mi South 3.5 mph - N/A   Overcast
2:15 AM 71.6 °F - 69.8 °F 94% 29.98 in 8.0 mi Calm Calm - N/A   Overcast
2:40 AM 71.6 °F - 69.8 °F 94% 29.98 in 7.0 mi SSW 4.6 mph - N/A   Mostly Cloudy
2:53 AM 73.0 °F - 70.0 °F 90% 29.97 in 8.0 mi SSW 3.5 mph - N/A   Mostly Cloudy
3:48 AM 73.4 °F - 69.8 °F 88% 29.98 in 6.0 mi South 3.5 mph - N/A   Overcast
3:53 AM 73.0 °F - 70.0 °F 90% 29.97 in 6.0 mi South 3.5 mph - N/A   Overcast
4:01 AM 73.4 °F - 69.8 °F 88% 29.98 in 6.0 mi South 3.5 mph - N/A   Overcast
4:14 AM 73.4 °F - 71.6 °F 94% 29.98 in 6.0 mi Calm Calm - N/A   Overcast
4:53 AM 73.0 °F - 71.1 °F 93% 29.98 in 6.0 mi Calm Calm - N/A   Overcast
5:07 AM 73.4 °F - 71.6 °F 94% 29.98 in 6.0 mi West 3.5 mph - N/A   Overcast
5:53 AM 73.0 °F - 71.1 °F 93% 29.97 in 6.0 mi WSW 3.5 mph - N/A   Overcast
6:53 AM 73.0 °F - 71.1 °F 93% 29.97 in 5.0 mi WNW 3.5 mph - N/A   Overcast
7:53 AM 73.9 °F - 70.0 °F 87% 29.99 in 5.0 mi NW 3.5 mph - N/A   Overcast
8:53 AM 73.9 °F - 70.0 °F 87% 29.99 in 6.0 mi Calm Calm - N/A   Overcast
9:36 AM 75.2 °F - 69.8 °F 83% 29.99 in 6.0 mi WNW 3.5 mph - N/A   Haze
9:53 AM 75.0 °F - 70.0 °F 84% 29.98 in 6.0 mi Calm Calm - N/A   Haze
10:53 AM 78.1 °F - 71.1 °F 79% 29.98 in 8.0 mi Calm Calm - N/A   Overcast
11:11 AM 78.8 °F - 69.8 °F 74% 29.99 in 8.0 mi West 3.5 mph - N/A   Mostly Cloudy
11:20 AM 78.8 °F - 69.8 °F 74% 29.98 in 8.0 mi WSW 3.5 mph - N/A   Overcast
11:31 AM 80.6 °F 84.6 °F 71.6 °F 74% 29.98 in 9.0 mi SW 5.8 mph - N/A   Mostly Cloudy
11:44 AM 78.8 °F - 69.8 °F 74% 29.98 in 9.0 mi Variable 3.5 mph - N/A   Mostly Cloudy
11:53 AM 80.1 °F 83.2 °F 70.0 °F 71% 29.97 in 9.0 mi West 5.8 mph - N/A   Mostly Cloudy
12:00 PM 80.6 °F 83.9 °F 69.8 °F 70% 29.98 in 9.0 mi WSW 6.9 mph - N/A   Mostly Cloudy
12:53 PM 82.9 °F 86.5 °F 69.1 °F 63% 29.96 in 10.0 mi West 6.9 mph - N/A   Scattered Clouds
1:53 PM 86.0 °F 90.1 °F 69.1 °F 57% 29.95 in 10.0 mi West 9.2 mph - N/A   Scattered Clouds
2:53 PM 87.1 °F 91.3 °F 69.1 °F 55% 29.94 in 10.0 mi SW 8.1 mph - N/A   Scattered Clouds
3:53 PM 87.1 °F 91.3 °F 69.1 °F 55% 29.91 in 10.0 mi WSW 3.5 mph - N/A   Mostly Cloudy
4:53 PM 89.1 °F 92.1 °F 66.9 °F 48% 29.89 in 10.0 mi WSW 8.1 mph - N/A   Partly Cloudy
5:53 PM 89.1 °F 93.7 °F 69.1 °F 52% 29.88 in 10.0 mi WSW 8.1 mph - N/A   Scattered Clouds
6:35 PM 78.8 °F - 69.8 °F 74% 29.93 in 1.8 mi West 18.4 mph 27.6 mph 0.15 in Rain Heavy Rain
6:40 PM 78.8 °F - 69.8 °F 74% 29.92 in 3.0 mi West 19.6 mph 31.1 mph 0.15 in Rain Light Rain
6:53 PM 78.1 °F - 69.1 °F 74% 29.89 in 10.0 mi Variable 6.9 mph - 0.15 in   Mostly Cloudy
7:53 PM 75.9 °F - 68.0 °F 76% 29.88 in 10.0 mi West 4.6 mph - 0.01 in   Partly Cloudy
8:53 PM 73.9 °F - 69.1 °F 85% 29.89 in 10.0 mi SW 6.9 mph - 0.01 in   Mostly Cloudy
9:53 PM 73.9 °F - 70.0 °F 87% 29.90 in 10.0 mi SW 8.1 mph - 0.00 in Rain Light Rain
10:53 PM 75.0 °F - 71.1 °F 87% 29.91 in 10.0 mi SW 8.1 mph - 0.00 in   Mostly Cloudy
11:53 PM 73.9 °F - 71.1 °F 91% 29.89 in 10.0 mi SSW 8.1 mph - 0.02 in   Overcast